星链-4492 (STARLINK-4492 )

导读

STARLINK-4492是美国SpaceX公司星链星座的一员,于2022年8月10日发射入轨,属于星链低轨互联网通信卫星组网任务。它运行在近地轨道,采用平板设计,搭载Ku/Ka波段通信载荷与霍尔推进器,具备自主避撞能力,服务全球宽带互联网接入。作为星链大规模星座部署的组成部分,它助力星链在全球范围,尤其是偏远区域提供低延迟网络服务,星链星座累计发射超万颗卫星,持续推进全球覆盖。

基本信息
目录编号:
53410
目录名称:
STARLINK-4492
国际标识:
2022-097Y
轨道中心:
EARTH
卫星名称:
星链-4492
卫星全名:
星链-4492 (STARLINK-4492 )
卫星状态:
在轨 (已飞行1494 天)
发射日期:
2022-08-10 UTC
国别 :
美国 (US)
星等 :
--
该卫星已列入 空间交会检测服务 Space Conjunction Data Service (SCDS) ,当前飞行风险评估等级: 无高风险
轨道信息
数据来源 国际轨道数据
星历时间: 2026-09-12T12:00:02+0800
6小时前
查看轨道信息
半长轴: 6888.106km
偏心率: 0.0001678
轨道倾角: 53.160°
近地点辐角 115.403°
升交点赤经 355.803°
平近点角 134.356°
近地点: 508.813km
远地点: 511.125km
周期: 94.822分钟
每日圈数: 15.186337
详细信息
固有亮度:
5
最大亮度:
2.5
卫星平台:
Starlink v1.5
覆盖范围:
全球
运营商:
太空探索技术公司
运营商所在国:
美国
制造商(研发单位):
太空探索技术公司
制造商所在国:
美国
使用方式:
暂无
卫星简介
星链(Starlink)计划是由太空探索技术公司(SpaceX)提出的一个巨型低轨卫星互联网星座项目,计划在2019年至2024年间在太空搭建由约1.2万颗卫星组成的“星链”网络,其中1584颗将部署在地球上空550千米处的近地轨道,并从2020年开始工作。该卫星仍在工作。
2D轨道图
3D轨道图
轨道高度分析图
轨道倾角分析图
轨道综合分析图
查看轨道综合分析图
交会数据列表
事件ID 空间交会对象 最接近时刻(TCA) 交会距离 交会风险概率(CRP) 交会风险指数(CRI) 操作
CDM_260914-131505-341006-901021
DRISHTI (69010)
2026-09-14T
13:15:08+0000
2.475 km
极远距离
1.777741E-6 低风险 0.4
与全量物体交会距离演化趋势
与全量物体交会风险概率演化趋势